Location: ????????
(60.4333°N, 46.4710°E)
Time: 19:21:16
(UTC+00:00)

Cosmos 2369 Rocket - Pass Details

Date: 25 November 2020
Orbit: 829 x 852 km, 71.0° (Epoch: 16 January)

Event Time Altitude Azimuth Distance (km) Brightness Sun altitude
Rises 15:54:45 0° 320° (NW) 3,433 6.0 -27.1°
Reaches altitude 10° 15:57:17 10° 315° (NW) 2,492 5.2 -27.4°
Maximum altitude 16:02:44 47° 244° (WSW) 1,118 3.1 -28.1°
Enters shadow 16:05:24 28° 187° (S) 1,559 3.5 -28.4°
